Wetterdaten: Woche 29.12.14 - 04.01.15 (KW1)
Datum Zeit Temp. A. Feuchte A. Luftdruck Regen Wind Richtung Sonnenschein ET UV Solar Taupunkt Windchill Windben Empfang
29.12.2014 00:00 -11,6 C 69 % 1030,2 hPa 0,0 l/m 0,0 km/h (0 Bft) N 0,00 h 0,000 mm 0,0 UV-I 0 W/m -16,1 C -11,6 C 0,0 km/h (0 Bft) 0,00 %
29.12.2014 01:00 -12,7 C 67 % 1030,4 hPa 0,0 l/m 0,0 km/h (0 Bft) N 0,00 h 0,000 mm 0,0 UV-I 0 W/m -17,5 C -12,7 C 0,0 km/h (0 Bft) 0,00 %
29.12.2014 02:00 -12,8 C 66 % 1030,8 hPa 0,0 l/m 0,0 km/h (0 Bft) N 0,00 h 0,000 mm 0,0 UV-I 0 W/m -17,8 C -12,8 C 0,0 km/h (0 Bft) 0,00 %
29.12.2014 03:00 -12,6 C 64 % 1031,8 hPa 0,0 l/m 0,0 km/h (0 Bft) N 0,00 h 0,000 mm 0,0 UV-I 0 W/m -18,0 C -12,6 C 0,0 km/h (0 Bft) 0,00 %
29.12.2014 04:00 -13,2 C 65 % 1031,5 hPa 0,0 l/m 0,0 km/h (0 Bft) N 0,00 h 0,000 mm 0,0 UV-I 0 W/m -18,4 C -13,2 C 0,0 km/h (0 Bft) 0,00 %
29.12.2014 05:00 -10,4 C 66 % 1030,6 hPa 0,0 l/m 0,0 km/h (0 Bft) N 0,00 h 0,000 mm 0,0 UV-I 0 W/m -15,5 C -10,4 C 0,0 km/h (0 Bft) 0,00 %
29.12.2014 06:00 -9,8 C 63 % 1030,0 hPa 0,0 l/m 0,0 km/h (0 Bft) N 0,00 h 0,000 mm 0,0 UV-I 0 W/m -15,5 C -9,8 C 0,0 km/h (0 Bft) 0,00 %
29.12.2014 07:00 -9,1 C 64 % 1029,6 hPa 0,0 l/m 0,0 km/h (0 Bft) N 0,00 h 0,000 mm 0,0 UV-I 0 W/m -14,6 C -9,1 C 0,0 km/h (0 Bft) 0,00 %
29.12.2014 08:00 -9,6 C 62 % 1028,9 hPa 0,0 l/m 0,0 km/h (0 Bft) N 0,00 h 0,000 mm 0,0 UV-I 0 W/m -15,5 C -9,6 C 0,0 km/h (0 Bft) 0,00 %
29.12.2014 09:00 -8,6 C 60 % 1028,0 hPa 0,0 l/m 0,0 km/h (0 Bft) N 0,00 h 0,000 mm 0,0 UV-I 0 W/m -14,9 C -8,6 C 0,0 km/h (0 Bft) 0,00 %
29.12.2014 10:00 -7,4 C 62 % 1027,5 hPa 0,0 l/m 0,0 km/h (0 Bft) N 0,00 h 0,000 mm 0,0 UV-I 0 W/m -13,4 C -7,4 C 0,0 km/h (0 Bft) 0,00 %
29.12.2014 11:00 -7,5 C 65 % 1027,2 hPa 0,0 l/m 0,0 km/h (0 Bft) N 0,00 h 0,000 mm 0,0 UV-I 0 W/m -12,9 C -7,5 C 0,0 km/h (0 Bft) 0,00 %
29.12.2014 12:00 -6,6 C 70 % 1026,3 hPa 0,0 l/m 0,0 km/h (0 Bft) N 0,00 h 0,000 mm 0,0 UV-I 0 W/m -11,1 C -6,6 C 0,0 km/h (0 Bft) 0,00 %
29.12.2014 13:00 -6,1 C 71 % 1025,8 hPa 0,0 l/m 0,0 km/h (0 Bft) N 0,00 h 0,000 mm 0,0 UV-I 0 W/m -10,5 C -6,1 C 0,0 km/h (0 Bft) 0,00 %
29.12.2014 14:00 -6,1 C 72 % 1025,8 hPa 0,0 l/m 0,0 km/h (0 Bft) N 0,00 h 0,000 mm 0,0 UV-I 0 W/m -10,3 C -6,1 C 0,0 km/h (0 Bft) 0,00 %
29.12.2014 15:00 -5,8 C 72 % 1026,5 hPa 0,0 l/m 0,0 km/h (0 Bft) N 0,00 h 0,000 mm 0,0 UV-I 0 W/m -10,0 C -5,8 C 0,0 km/h (0 Bft) 0,00 %
29.12.2014 16:00 -6,1 C 72 % 1027,3 hPa 0,0 l/m 0,0 km/h (0 Bft) N 0,00 h 0,000 mm 0,0 UV-I 0 W/m -10,3 C -6,1 C 0,0 km/h (0 Bft) 0,00 %
29.12.2014 17:00 -6,3 C 72 % 1028,0 hPa 0,0 l/m 0,0 km/h (0 Bft) N 0,00 h 0,000 mm 0,0 UV-I 0 W/m -10,5 C -6,3 C 0,0 km/h (0 Bft) 0,00 %
29.12.2014 18:00 -7,0 C 73 % 1028,9 hPa 0,0 l/m 0,0 km/h (0 Bft) N 0,00 h 0,000 mm 0,0 UV-I 0 W/m -11,0 C -7,0 C 0,0 km/h (0 Bft) 0,00 %
29.12.2014 19:00 -6,8 C 72 % 1029,9 hPa 0,0 l/m 0,0 km/h (0 Bft) N 0,00 h 0,000 mm 0,0 UV-I 0 W/m -11,0 C -6,8 C 0,0 km/h (0 Bft) 0,00 %
29.12.2014 20:00 -6,7 C 73 % 1030,9 hPa 0,0 l/m 0,0 km/h (0 Bft) N 0,00 h 0,000 mm 0,0 UV-I 0 W/m -10,7 C -6,7 C 0,0 km/h (0 Bft) 0,00 %
29.12.2014 21:00 -6,7 C 73 % 1031,7 hPa 0,0 l/m 0,0 km/h (0 Bft) N 0,00 h 0,000 mm 0,0 UV-I 0 W/m -10,7 C -6,7 C 0,0 km/h (0 Bft) 0,00 %
29.12.2014 22:00 -6,9 C 72 % 1033,1 hPa 0,0 l/m 0,0 km/h (0 Bft) N 0,00 h 0,000 mm 0,0 UV-I 0 W/m -11,1 C -6,9 C 0,0 km/h (0 Bft) 0,00 %
29.12.2014 23:00 -8,3 C 70 % 1033,7 hPa 0,0 l/m 0,0 km/h (0 Bft) N 0,00 h 0,000 mm 0,0 UV-I 0 W/m -12,8 C -8,3 C 0,0 km/h (0 Bft) 0,00 %
30.12.2014 00:00 -7,9 C 70 % 1035,1 hPa 0,0 l/m 0,0 km/h (0 Bft) N 0,00 h 0,000 mm 0,0 UV-I 0 W/m -12,4 C -7,9 C 0,0 km/h (0 Bft) 0,00 %
30.12.2014 01:00 -9,4 C 72 % 1035,1 hPa 0,0 l/m 0,0 km/h (0 Bft) N 0,00 h 0,000 mm 0,0 UV-I 0 W/m -13,5 C -9,4 C 0,0 km/h (0 Bft) 0,00 %
30.12.2014 02:00 -9,7 C 72 % 1035,9 hPa 0,0 l/m 0,0 km/h (0 Bft) N 0,00 h 0,000 mm 0,0 UV-I 0 W/m -13,8 C -9,7 C 0,0 km/h (0 Bft) 0,00 %
30.12.2014 03:00 -9,6 C 71 % 1036,2 hPa 0,0 l/m 0,0 km/h (0 Bft) N 0,00 h 0,000 mm 0,0 UV-I 0 W/m -13,8 C -9,6 C 0,0 km/h (0 Bft) 0,00 %
30.12.2014 04:00 -10,3 C 71 % 1036,3 hPa 0,0 l/m 0,0 km/h (0 Bft) N 0,00 h 0,000 mm 0,0 UV-I 0 W/m -14,5 C -10,3 C 0,0 km/h (0 Bft) 0,00 %
30.12.2014 05:00 -10,1 C 71 % 1036,3 hPa 0,0 l/m 0,0 km/h (0 Bft) N 0,00 h 0,000 mm 0,0 UV-I 0 W/m -14,3 C -10,1 C 0,0 km/h (0 Bft) 0,00 %
30.12.2014 06:00 -10,6 C 72 % 1036,1 hPa 0,0 l/m 0,0 km/h (0 Bft) N 0,00 h 0,000 mm 0,0 UV-I 0 W/m -14,6 C -10,6 C 0,0 km/h (0 Bft) 0,00 %
30.12.2014 07:00 -9,7 C 71 % 1035,9 hPa 0,0 l/m 0,0 km/h (0 Bft) N 0,00 h 0,000 mm 0,0 UV-I 0 W/m -13,9 C -9,7 C 0,0 km/h (0 Bft) 0,00 %
30.12.2014 08:00 -8,9 C 70 % 1035,7 hPa 0,0 l/m 0,0 km/h (0 Bft) N 0,00 h 0,000 mm 0,0 UV-I 0 W/m -13,3 C -8,9 C 0,0 km/h (0 Bft) 0,00 %
30.12.2014 09:00 -7,8 C 70 % 1035,5 hPa 0,0 l/m 0,0 km/h (0 Bft) N 0,00 h 0,000 mm 0,0 UV-I 0 W/m -12,3 C -7,8 C 0,0 km/h (0 Bft) 0,00 %
30.12.2014 10:00 -6,1 C 73 % 1035,2 hPa 0,0 l/m 0,0 km/h (0 Bft) N 0,00 h 0,000 mm 0,0 UV-I 0 W/m -10,1 C -6,1 C 0,0 km/h (0 Bft) 0,00 %
30.12.2014 11:00 -4,6 C 68 % 1034,6 hPa 0,0 l/m 0,0 km/h (0 Bft) N 0,00 h 0,000 mm 0,0 UV-I 0 W/m -9,6 C -4,6 C 0,0 km/h (0 Bft) 0,00 %
30.12.2014 12:00 -3,8 C 62 % 1033,8 hPa 0,0 l/m 0,0 km/h (0 Bft) N 0,00 h 0,000 mm 0,0 UV-I 0 W/m -10,0 C -3,8 C 0,0 km/h (0 Bft) 0,00 %
30.12.2014 13:00 -4,1 C 63 % 1033,1 hPa 0,0 l/m 0,0 km/h (0 Bft) N 0,00 h 0,000 mm 0,0 UV-I 0 W/m -10,1 C -4,1 C 0,0 km/h (0 Bft) 0,00 %
30.12.2014 14:00 -2,6 C 58 % 1032,5 hPa 0,0 l/m 0,0 km/h (0 Bft) N 0,00 h 0,000 mm 0,0 UV-I 0 W/m -9,7 C -2,6 C 0,0 km/h (0 Bft) 0,00 %
30.12.2014 15:00 -3,9 C 64 % 1032,7 hPa 0,0 l/m 0,0 km/h (0 Bft) N 0,00 h 0,000 mm 0,0 UV-I 0 W/m -9,7 C -3,9 C 0,0 km/h (0 Bft) 0,00 %
30.12.2014 16:00 -5,0 C 69 % 1032,5 hPa 0,0 l/m 0,0 km/h (0 Bft) N 0,00 h 0,000 mm 0,0 UV-I 0 W/m -9,8 C -5,0 C 0,0 km/h (0 Bft) 0,00 %
30.12.2014 17:00 -5,3 C 70 % 1033,0 hPa 0,0 l/m 0,0 km/h (0 Bft) N 0,00 h 0,000 mm 0,0 UV-I 0 W/m -9,9 C -5,3 C 0,0 km/h (0 Bft) 0,00 %
30.12.2014 18:00 -5,3 C 71 % 1033,3 hPa 0,0 l/m 0,0 km/h (0 Bft) N 0,00 h 0,000 mm 0,0 UV-I 0 W/m -9,7 C -5,3 C 0,0 km/h (0 Bft) 0,00 %
30.12.2014 19:00 -5,2 C 72 % 1033,0 hPa 0,0 l/m 0,0 km/h (0 Bft) N 0,00 h 0,000 mm 0,0 UV-I 0 W/m -9,4 C -5,2 C 0,0 km/h (0 Bft) 0,00 %
30.12.2014 20:00 -5,1 C 72 % 1032,9 hPa 0,0 l/m 0,0 km/h (0 Bft) N 0,00 h 0,000 mm 0,0 UV-I 0 W/m -9,3 C -5,1 C 0,0 km/h (0 Bft) 0,00 %
30.12.2014 21:00 -5,1 C 73 % 1033,3 hPa 0,0 l/m 0,0 km/h (0 Bft) N 0,00 h 0,000 mm 0,0 UV-I 0 W/m -9,2 C -5,1 C 0,0 km/h (0 Bft) 0,00 %
30.12.2014 22:00 -5,1 C 74 % 1033,3 hPa 0,0 l/m 0,0 km/h (0 Bft) N 0,00 h 0,000 mm 0,0 UV-I 0 W/m -9,0 C -5,1 C 0,0 km/h (0 Bft) 0,00 %
30.12.2014 23:00 -5,1 C 75 % 1033,3 hPa 0,0 l/m 0,0 km/h (0 Bft) N 0,00 h 0,000 mm 0,0 UV-I 0 W/m -8,8 C -5,1 C 0,0 km/h (0 Bft) 0,00 %
31.12.2014 00:00 -5,0 C 75 % 1032,8 hPa 0,0 l/m 0,0 km/h (0 Bft) N 0,00 h 0,000 mm 0,0 UV-I 0 W/m -8,7 C -5,0 C 0,0 km/h (0 Bft) 0,00 %
31.12.2014 01:00 -5,0 C 75 % 1032,8 hPa 0,0 l/m 0,0 km/h (0 Bft) N 0,00 h 0,000 mm 0,0 UV-I 0 W/m -8,7 C -5,0 C 0,0 km/h (0 Bft) 0,00 %
31.12.2014 02:00 -4,9 C 75 % 1032,8 hPa 0,0 l/m 0,0 km/h (0 Bft) N 0,00 h 0,000 mm 0,0 UV-I 0 W/m -8,6 C -4,9 C 0,0 km/h (0 Bft) 0,00 %
31.12.2014 03:00 -5,1 C 76 % 1032,8 hPa 0,0 l/m 0,0 km/h (0 Bft) N 0,00 h 0,000 mm 0,0 UV-I 0 W/m -8,7 C -5,1 C 0,0 km/h (0 Bft) 0,00 %
31.12.2014 04:00 -5,2 C 76 % 1032,5 hPa 0,0 l/m 0,0 km/h (0 Bft) N 0,00 h 0,000 mm 0,0 UV-I 0 W/m -8,8 C -5,2 C 0,0 km/h (0 Bft) 0,00 %
31.12.2014 05:00 -5,3 C 76 % 1032,9 hPa 0,0 l/m 0,0 km/h (0 Bft) N 0,00 h 0,000 mm 0,0 UV-I 0 W/m -8,8 C -5,3 C 0,0 km/h (0 Bft) 0,00 %
31.12.2014 06:00 -5,4 C 76 % 1033,3 hPa 0,0 l/m 0,0 km/h (0 Bft) N 0,00 h 0,000 mm 0,0 UV-I 0 W/m -8,9 C -5,4 C 0,0 km/h (0 Bft) 0,00 %
31.12.2014 07:00 -5,4 C 75 % 1034,0 hPa 0,0 l/m 0,0 km/h (0 Bft) N 0,00 h 0,000 mm 0,0 UV-I 0 W/m -9,1 C -5,4 C 0,0 km/h (0 Bft) 0,00 %
31.12.2014 08:00 -5,4 C 75 % 1034,7 hPa 0,0 l/m 0,0 km/h (0 Bft) N 0,00 h 0,000 mm 0,0 UV-I 0 W/m -9,1 C -5,4 C 0,0 km/h (0 Bft) 0,00 %
31.12.2014 09:00 -5,0 C 74 % 1034,6 hPa 0,0 l/m 0,0 km/h (0 Bft) N 0,00 h 0,000 mm 0,0 UV-I 0 W/m -8,9 C -5,0 C 0,0 km/h (0 Bft) 0,00 %
31.12.2014 10:00 -3,7 C 70 % 1034,8 hPa 0,0 l/m 0,0 km/h (0 Bft) N 0,00 h 0,000 mm 0,0 UV-I 0 W/m -8,4 C -3,7 C 0,0 km/h (0 Bft) 0,00 %
31.12.2014 11:00 -3,1 C 68 % 1035,3 hPa 0,0 l/m 0,0 km/h (0 Bft) N 0,00 h 0,000 mm 0,0 UV-I 0 W/m -8,1 C -3,1 C 0,0 km/h (0 Bft) 0,00 %
31.12.2014 12:00 -2,5 C 70 % 1034,9 hPa 0,0 l/m 0,0 km/h (0 Bft) N 0,00 h 0,000 mm 0,0 UV-I 0 W/m -7,2 C -2,5 C 0,0 km/h (0 Bft) 0,00 %
31.12.2014 13:00 -1,7 C 70 % 1034,4 hPa 0,0 l/m 0,0 km/h (0 Bft) N 0,00 h 0,000 mm 0,0 UV-I 0 W/m -6,4 C -1,7 C 0,0 km/h (0 Bft) 0,00 %
31.12.2014 14:00 -2,6 C 73 % 1035,2 hPa 0,0 l/m 0,0 km/h (0 Bft) N 0,00 h 0,000 mm 0,0 UV-I 0 W/m -6,8 C -2,6 C 0,0 km/h (0 Bft) 0,00 %
31.12.2014 15:00 -2,3 C 72 % 1035,2 hPa 0,0 l/m 0,0 km/h (0 Bft) N 0,00 h 0,000 mm 0,0 UV-I 0 W/m -6,6 C -2,3 C 0,0 km/h (0 Bft) 0,00 %
31.12.2014 16:00 -2,7 C 71 % 1035,7 hPa 0,0 l/m 0,0 km/h (0 Bft) N 0,00 h 0,000 mm 0,0 UV-I 0 W/m -7,2 C -2,7 C 0,0 km/h (0 Bft) 0,00 %
31.12.2014 17:00 -3,2 C 74 % 1035,7 hPa 0,0 l/m 0,0 km/h (0 Bft) N 0,00 h 0,000 mm 0,0 UV-I 0 W/m -7,2 C -3,2 C 0,0 km/h (0 Bft) 0,00 %
31.12.2014 18:00 -3,2 C 75 % 1036,2 hPa 0,0 l/m 0,0 km/h (0 Bft) N 0,00 h 0,000 mm 0,0 UV-I 0 W/m -7,0 C -3,2 C 0,0 km/h (0 Bft) 0,00 %
31.12.2014 19:00 -3,0 C 76 % 1036,9 hPa 0,0 l/m 0,0 km/h (0 Bft) N 0,00 h 0,000 mm 0,0 UV-I 0 W/m -6,6 C -3,0 C 0,0 km/h (0 Bft) 0,00 %
31.12.2014 20:00 -3,1 C 77 % 1036,6 hPa 0,0 l/m 0,0 km/h (0 Bft) N 0,00 h 0,000 mm 0,0 UV-I 0 W/m -6,5 C -3,1 C 0,0 km/h (0 Bft) 0,00 %
31.12.2014 21:00 -2,6 C 82 % 1037,1 hPa 0,0 l/m 0,0 km/h (0 Bft) N 0,00 h 0,000 mm 0,0 UV-I 0 W/m -5,2 C -2,6 C 0,0 km/h (0 Bft) 0,00 %
31.12.2014 22:00 -1,5 C 80 % 1036,9 hPa 0,0 l/m 0,0 km/h (0 Bft) N 0,00 h 0,000 mm 0,0 UV-I 0 W/m -4,5 C -1,5 C 0,0 km/h (0 Bft) 0,00 %
31.12.2014 23:00 -1,0 C 77 % 1036,8 hPa 0,0 l/m 0,0 km/h (0 Bft) N 0,00 h 0,000 mm 0,0 UV-I 0 W/m -4,5 C -1,0 C 0,0 km/h (0 Bft) 0,00 %
01.01.2015 00:00 -0,9 C 76 % 1036,7 hPa 0,0 l/m 0,0 km/h (0 Bft) N 0,00 h 0,000 mm 0,0 UV-I 0 W/m -4,6 C -0,9 C 0,0 km/h (0 Bft) 0,00 %
01.01.2015 01:00 -0,8 C 75 % 1036,7 hPa 0,0 l/m 0,0 km/h (0 Bft) N 0,00 h 0,000 mm 0,0 UV-I 0 W/m -4,7 C -0,8 C 0,0 km/h (0 Bft) 0,00 %
01.01.2015 02:00 -1,0 C 75 % 1037,1 hPa 0,0 l/m 0,0 km/h (0 Bft) N 0,00 h 0,000 mm 0,0 UV-I 0 W/m -4,9 C -1,0 C 0,0 km/h (0 Bft) 0,00 %
01.01.2015 03:00 -1,1 C 76 % 1037,2 hPa 0,0 l/m 0,0 km/h (0 Bft) N 0,00 h 0,000 mm 0,0 UV-I 0 W/m -4,8 C -1,1 C 0,0 km/h (0 Bft) 0,00 %
01.01.2015 04:00 -1,2 C 76 % 1036,7 hPa 0,0 l/m 0,0 km/h (0 Bft) N 0,00 h 0,000 mm 0,0 UV-I 0 W/m -4,9 C -1,2 C 0,0 km/h (0 Bft) 0,00 %
01.01.2015 05:00 -1,2 C 76 % 1037,2 hPa 0,0 l/m 0,0 km/h (0 Bft) N 0,00 h 0,000 mm 0,0 UV-I 0 W/m -4,9 C -1,2 C 0,0 km/h (0 Bft) 0,00 %
01.01.2015 06:00 -1,2 C 76 % 1037,2 hPa 0,0 l/m 0,0 km/h (0 Bft) N 0,00 h 0,000 mm 0,0 UV-I 0 W/m -4,9 C -1,2 C 0,0 km/h (0 Bft) 0,00 %
01.01.2015 07:00 -1,3 C 76 % 1037,5 hPa 0,0 l/m 0,0 km/h (0 Bft) N 0,00 h 0,000 mm 0,0 UV-I 0 W/m -5,0 C -1,3 C 0,0 km/h (0 Bft) 0,00 %
01.01.2015 08:00 -1,1 C 75 % 1037,9 hPa 0,0 l/m 0,0 km/h (0 Bft) N 0,00 h 0,000 mm 0,0 UV-I 0 W/m -5,0 C -1,1 C 0,0 km/h (0 Bft) 0,00 %
01.01.2015 09:00 -0,6 C 76 % 1037,8 hPa 0,0 l/m 0,0 km/h (0 Bft) N 0,00 h 0,000 mm 0,0 UV-I 0 W/m -4,3 C -0,6 C 0,0 km/h (0 Bft) 0,00 %
01.01.2015 10:00 0,3 C 71 % 1038,0 hPa 0,0 l/m 0,0 km/h (0 Bft) N 0,00 h 0,000 mm 0,0 UV-I 0 W/m -4,3 C 0,3 C 0,0 km/h (0 Bft) 0,00 %
01.01.2015 11:00 1,6 C 66 % 1037,0 hPa 0,0 l/m 0,0 km/h (0 Bft) N 0,00 h 0,000 mm 0,0 UV-I 0 W/m -4,1 C 1,6 C 0,0 km/h (0 Bft) 0,00 %
01.01.2015 12:00 2,9 C 68 % 1037,2 hPa 0,0 l/m 0,0 km/h (0 Bft) N 1,00 h 0,000 mm 0,0 UV-I 0 W/m -2,4 C 2,9 C 0,0 km/h (0 Bft) 0,00 %
01.01.2015 13:00 2,2 C 63 % 1036,6 hPa 0,0 l/m 0,0 km/h (0 Bft) N 1,00 h 0,000 mm 0,0 UV-I 0 W/m -4,1 C 2,2 C 0,0 km/h (0 Bft) 0,00 %
01.01.2015 14:00 2,4 C 62 % 1036,9 hPa 0,0 l/m 0,0 km/h (0 Bft) N 0,00 h 0,000 mm 0,0 UV-I 0 W/m -4,1 C 2,4 C 0,0 km/h (0 Bft) 0,00 %
01.01.2015 15:00 1,2 C 69 % 1036,7 hPa 0,0 l/m 0,0 km/h (0 Bft) N 0,00 h 0,000 mm 0,0 UV-I 0 W/m -3,8 C 1,2 C 0,0 km/h (0 Bft) 0,00 %
01.01.2015 16:00 0,6 C 71 % 1036,4 hPa 0,0 l/m 0,0 km/h (0 Bft) N 0,00 h 0,000 mm 0,0 UV-I 0 W/m -4,0 C 0,6 C 0,0 km/h (0 Bft) 0,00 %
01.01.2015 17:00 -0,1 C 73 % 1036,6 hPa 0,0 l/m 0,0 km/h (0 Bft) N 0,00 h 0,000 mm 0,0 UV-I 0 W/m -4,3 C -0,1 C 0,0 km/h (0 Bft) 0,00 %
01.01.2015 18:00 -1,2 C 78 % 1036,7 hPa 0,0 l/m 0,0 km/h (0 Bft) N 0,00 h 0,000 mm 0,0 UV-I 0 W/m -4,5 C -1,2 C 0,0 km/h (0 Bft) 0,00 %
01.01.2015 19:00 -2,7 C 78 % 1037,1 hPa 0,0 l/m 0,0 km/h (0 Bft) N 0,00 h 0,000 mm 0,0 UV-I 0 W/m -6,1 C -2,7 C 0,0 km/h (0 Bft) 0,00 %
01.01.2015 20:00 -2,6 C 82 % 1037,3 hPa 0,3 l/m 0,0 km/h (0 Bft) N 0,00 h 0,000 mm 0,0 UV-I 0 W/m -5,3 C -2,6 C 0,0 km/h (0 Bft) 0,00 %
01.01.2015 21:00 -2,9 C 78 % 1036,9 hPa 0,0 l/m 0,0 km/h (0 Bft) N 0,00 h 0,000 mm 0,0 UV-I 0 W/m -6,2 C -2,9 C 0,0 km/h (0 Bft) 0,00 %
01.01.2015 22:00 -3,8 C 78 % 1036,4 hPa 0,0 l/m 0,0 km/h (0 Bft) N 0,00 h 0,000 mm 0,0 UV-I 0 W/m -7,1 C -3,8 C 0,0 km/h (0 Bft) 0,00 %
01.01.2015 23:00 -4,8 C 79 % 1036,2 hPa 0,0 l/m 0,0 km/h (0 Bft) N 0,00 h 0,000 mm 0,0 UV-I 0 W/m -7,9 C -4,8 C 0,0 km/h (0 Bft) 0,00 %
02.01.2015 00:00 -5,0 C 79 % 1035,6 hPa 0,0 l/m 0,0 km/h (0 Bft) N 0,00 h 0,000 mm 0,0 UV-I 0 W/m -8,0 C -5,0 C 0,0 km/h (0 Bft) 0,00 %
02.01.2015 01:00 -4,1 C 79 % 1035,2 hPa 0,0 l/m 0,0 km/h (0 Bft) N 0,00 h 0,000 mm 0,0 UV-I 0 W/m -7,2 C -4,1 C 0,0 km/h (0 Bft) 0,00 %
02.01.2015 02:00 -3,6 C 79 % 1034,8 hPa 0,0 l/m 0,0 km/h (0 Bft) N 0,00 h 0,000 mm 0,0 UV-I 0 W/m -6,7 C -3,6 C 0,0 km/h (0 Bft) 0,00 %
02.01.2015 03:00 -3,1 C 79 % 1034,4 hPa 0,0 l/m 0,0 km/h (0 Bft) N 0,00 h 0,000 mm 0,0 UV-I 0 W/m -6,3 C -3,1 C 0,0 km/h (0 Bft) 0,00 %
02.01.2015 04:00 -3,1 C 79 % 1033,8 hPa 0,0 l/m 0,0 km/h (0 Bft) N 0,00 h 0,000 mm 0,0 UV-I 0 W/m -6,3 C -3,1 C 0,0 km/h (0 Bft) 0,00 %
02.01.2015 05:00 -3,8 C 79 % 1033,1 hPa 0,0 l/m 0,0 km/h (0 Bft) N 0,00 h 0,000 mm 0,0 UV-I 0 W/m -6,9 C -3,8 C 0,0 km/h (0 Bft) 0,00 %
02.01.2015 06:00 -3,7 C 79 % 1033,3 hPa 0,0 l/m 0,0 km/h (0 Bft) N 0,00 h 0,000 mm 0,0 UV-I 0 W/m -6,8 C -3,7 C 0,0 km/h (0 Bft) 0,00 %
02.01.2015 07:00 -3,7 C 79 % 1033,6 hPa 0,0 l/m 0,0 km/h (0 Bft) N 0,00 h 0,000 mm 0,0 UV-I 0 W/m -6,8 C -3,7 C 0,0 km/h (0 Bft) 0,00 %
02.01.2015 08:00 -4,0 C 79 % 1033,6 hPa 0,0 l/m 0,0 km/h (0 Bft) N 0,00 h 0,000 mm 1,0 UV-I 21 W/m -7,0 C -4,0 C 0,0 km/h (0 Bft) 0,00 %
02.01.2015 09:00 -3,3 C 78 % 1033,2 hPa 0,0 l/m 0,0 km/h (0 Bft) N 0,00 h 0,000 mm 1,0 UV-I 86 W/m -6,6 C -3,3 C 0,0 km/h (0 Bft) 0,00 %
02.01.2015 10:00 -1,7 C 81 % 1032,9 hPa 0,0 l/m 0,0 km/h (0 Bft) N 0,75 h 0,000 mm 1,7 UV-I 196 W/m -4,6 C -1,7 C 0,0 km/h (0 Bft) 0,00 %
02.01.2015 11:00 -1,5 C 78 % 1032,3 hPa 0,0 l/m 0,0 km/h (0 Bft) N 1,00 h 0,000 mm 1,0 UV-I 229 W/m -4,8 C -1,5 C 0,0 km/h (0 Bft) 0,00 %
02.01.2015 12:00 -0,8 C 74 % 1031,1 hPa 0,0 l/m 0,0 km/h (0 Bft) N 0,50 h 0,000 mm 1,7 UV-I 172 W/m -4,9 C -0,8 C 0,0 km/h (0 Bft) 0,00 %
02.01.2015 13:00 0,1 C 72 % 1030,3 hPa 0,0 l/m 0,0 km/h (0 Bft) N 0,50 h 0,000 mm 1,0 UV-I 162 W/m -4,3 C 0,1 C 0,0 km/h (0 Bft) 0,00 %
02.01.2015 14:00 0,0 C 73 % 1030,4 hPa 0,0 l/m 0,0 km/h (0 Bft) N 0,00 h 0,000 mm 1,0 UV-I 80 W/m -4,2 C 0,0 C 0,0 km/h (0 Bft) 0,00 %
02.01.2015 15:00 -0,3 C 77 % 1030,3 hPa 0,0 l/m 0,0 km/h (0 Bft) N 0,00 h 0,000 mm 0,0 UV-I 27 W/m -3,7 C -0,3 C 0,0 km/h (0 Bft) 0,00 %
02.01.2015 16:00 0,0 C 81 % 1030,6 hPa 0,0 l/m 0,0 km/h (0 Bft) N 0,00 h 0,000 mm 0,0 UV-I 0 W/m -2,9 C 0,0 C 0,0 km/h (0 Bft) 0,00 %
02.01.2015 17:00 1,1 C 80 % 1030,6 hPa 0,0 l/m 0,0 km/h (0 Bft) N 0,00 h 0,000 mm 0,0 UV-I 0 W/m -1,9 C 1,1 C 0,0 km/h (0 Bft) 0,00 %
02.01.2015 18:00 2,1 C 80 % 1030,3 hPa 0,0 l/m 1,1 km/h (0 Bft) W 0,00 h 0,000 mm 0,0 UV-I 0 W/m -1,0 C 2,1 C 2,0 km/h (1 Bft) 0,00 %
02.01.2015 19:00 2,3 C 83 % 1031,3 hPa 0,0 l/m 2,5 km/h (1 Bft) W-SW 0,00 h 0,000 mm 0,0 UV-I 0 W/m -0,3 C 1,5 C 4,0 km/h (1 Bft) 0,00 %
02.01.2015 20:00 2,7 C 86 % 1031,7 hPa 0,0 l/m 0,4 km/h (0 Bft) W-SW 0,00 h 0,000 mm 0,0 UV-I 0 W/m 0,6 C 2,7 C 2,0 km/h (1 Bft) 0,00 %
02.01.2015 21:00 2,7 C 86 % 1032,7 hPa 0,0 l/m 5,4 km/h (1 Bft) W-SW 0,00 h 0,000 mm 0,0 UV-I 0 W/m 0,6 C 2,2 C 9,9 km/h (2 Bft) 0,00 %
02.01.2015 22:00 2,6 C 85 % 1033,2 hPa 0,0 l/m 3,4 km/h (1 Bft) W-SW 0,00 h 0,000 mm 0,0 UV-I 0 W/m 0,3 C 2,6 C 6,9 km/h (2 Bft) 0,00 %
02.01.2015 23:00 2,5 C 83 % 1033,4 hPa 0,0 l/m 2,2 km/h (1 Bft) W-SW 0,00 h 0,000 mm 0,0 UV-I 0 W/m 0,0 C 2,5 C 6,6 km/h (2 Bft) 0,00 %
03.01.2015 00:00 2,5 C 82 % 1033,2 hPa 0,0 l/m 7,0 km/h (2 Bft) W-SW 0,00 h 0,000 mm 0,0 UV-I 0 W/m -0,2 C 0,1 C 12,0 km/h (2 Bft) 0,00 %
03.01.2015 01:00 2,5 C 80 % 1033,1 hPa 0,0 l/m 4,3 km/h (1 Bft) SW 0,00 h 0,000 mm 0,0 UV-I 0 W/m -0,5 C 2,5 C 5,9 km/h (2 Bft) 0,00 %
03.01.2015 02:00 2,5 C 79 % 1033,4 hPa 0,0 l/m 7,1 km/h (2 Bft) W-SW 0,00 h 0,000 mm 0,0 UV-I 0 W/m -0,9 C 1,4 C 10,9 km/h (2 Bft) 0,00 %
03.01.2015 03:00 2,3 C 71 % 1033,6 hPa 0,0 l/m 11,6 km/h (2 Bft) W-SW 0,00 h 0,000 mm 0,0 UV-I 0 W/m -2,3 C -2,1 C 17,9 km/h (3 Bft) 0,00 %
03.01.2015 04:00 2,0 C 67 % 1033,5 hPa 0,0 l/m 5,4 km/h (1 Bft) W-SW 0,00 h 0,000 mm 0,0 UV-I 0 W/m -3,4 C 0,8 C 8,9 km/h (2 Bft) 0,00 %
03.01.2015 05:00 1,6 C 68 % 1033,6 hPa 0,0 l/m 3,6 km/h (1 Bft) SW 0,00 h 0,000 mm 0,0 UV-I 0 W/m -3,7 C 1,6 C 7,9 km/h (2 Bft) 0,00 %
03.01.2015 06:00 1,5 C 69 % 1033,7 hPa 0,0 l/m 1,9 km/h (1 Bft) W-SW 0,00 h 0,000 mm 0,0 UV-I 0 W/m -3,7 C 1,5 C 5,0 km/h (1 Bft) 0,00 %
03.01.2015 07:00 1,1 C 70 % 1033,3 hPa 0,0 l/m 0,7 km/h (0 Bft) W-NW 0,00 h 0,000 mm 0,0 UV-I 0 W/m -3,8 C 1,1 C 2,0 km/h (1 Bft) 0,00 %
03.01.2015 08:00 1,1 C 70 % 1032,3 hPa 0,0 l/m 1,1 km/h (1 Bft) W-SW 0,00 h 0,000 mm 1,0 UV-I 25 W/m -3,8 C 1,1 C 3,0 km/h (1 Bft) 0,00 %
03.01.2015 09:00 1,9 C 68 % 1031,5 hPa 0,0 l/m 1,8 km/h (1 Bft) W-SW 0,00 h 0,000 mm 1,0 UV-I 86 W/m -3,4 C 1,9 C 5,0 km/h (1 Bft) 0,00 %
03.01.2015 10:00 2,8 C 70 % 1030,6 hPa 0,9 l/m 0,1 km/h (0 Bft) N 0,00 h 0,000 mm 1,0 UV-I 123 W/m -2,2 C 2,8 C 1,0 km/h (0 Bft) 0,00 %
03.01.2015 11:00 3,0 C 71 % 1029,2 hPa 0,0 l/m 0,1 km/h (0 Bft) N 0,00 h 0,000 mm 1,0 UV-I 119 W/m -1,8 C 3,0 C 1,0 km/h (0 Bft) 0,00 %
03.01.2015 12:00 3,9 C 68 % 1026,3 hPa 0,0 l/m 0,2 km/h (0 Bft) N 1,00 h 0,000 mm 1,3 UV-I 230 W/m -1,5 C 3,9 C 2,0 km/h (1 Bft) 0,00 %
03.01.2015 13:00 4,3 C 65 % 1024,1 hPa 0,0 l/m 0,0 km/h (0 Bft) N 0,00 h 0,000 mm 1,0 UV-I 136 W/m -1,8 C 4,3 C 0,0 km/h (0 Bft) 0,00 %
03.01.2015 14:00 4,4 C 64 % 1022,9 hPa 0,0 l/m 0,0 km/h (0 Bft) N 0,00 h 0,000 mm 1,0 UV-I 84 W/m -1,8 C 4,4 C 0,0 km/h (0 Bft) 0,00 %
03.01.2015 15:00 3,4 C 70 % 1022,4 hPa 0,0 l/m 0,0 km/h (0 Bft) N 0,00 h 0,000 mm 0,0 UV-I 6 W/m -1,6 C 3,4 C 0,0 km/h (0 Bft) 0,00 %
03.01.2015 16:00 2,6 C 74 % 1020,8 hPa 0,6 l/m 0,0 km/h (0 Bft) N 0,00 h 0,000 mm 0,0 UV-I 0 W/m -1,7 C 2,6 C 0,0 km/h (0 Bft) 0,00 %
03.01.2015 17:00 1,3 C 79 % 1019,0 hPa 1,2 l/m 0,3 km/h (0 Bft) W-SW 0,00 h 0,000 mm 0,0 UV-I 0 W/m -2,0 C 1,3 C 1,0 km/h (0 Bft) 0,00 %
03.01.2015 18:00 -0,1 C 81 % 1018,4 hPa 0,0 l/m 0,0 km/h (0 Bft) N 0,00 h 0,000 mm 0,0 UV-I 0 W/m -2,9 C -0,1 C 0,0 km/h (0 Bft) 0,00 %
03.01.2015 19:00 -0,2 C 82 % 1017,8 hPa 0,0 l/m 0,0 km/h (0 Bft) N 0,00 h 0,000 mm 0,0 UV-I 0 W/m -2,9 C -0,2 C 0,0 km/h (0 Bft) 0,00 %
03.01.2015 20:00 -0,0 C 83 % 1015,8 hPa 0,0 l/m 0,0 km/h (0 Bft) N 0,00 h 0,000 mm 0,0 UV-I 0 W/m -2,6 C -0,0 C 0,0 km/h (0 Bft) 0,00 %
03.01.2015 21:00 0,0 C 83 % 1014,3 hPa 1,2 l/m 0,0 km/h (0 Bft) N 0,00 h 0,000 mm 0,0 UV-I 0 W/m -2,5 C 0,0 C 0,0 km/h (0 Bft) 0,00 %
03.01.2015 22:00 -0,1 C 83 % 1012,8 hPa 3,9 l/m 0,0 km/h (0 Bft) N 0,00 h 0,000 mm 0,0 UV-I 0 W/m -2,6 C -0,1 C 0,0 km/h (0 Bft) 0,00 %
03.01.2015 23:00 -0,2 C 83 % 1013,2 hPa 1,5 l/m 0,0 km/h (0 Bft) N 0,00 h 0,000 mm 0,0 UV-I 0 W/m -2,8 C -0,2 C 0,0 km/h (0 Bft) 0,00 %
04.01.2015 00:00 -0,3 C 83 % 1014,4 hPa 0,3 l/m 0,0 km/h (0 Bft) N 0,00 h 0,000 mm 0,0 UV-I 0 W/m -2,8 C -0,3 C 0,0 km/h (0 Bft) 0,00 %
04.01.2015 01:00 -0,2 C 83 % 1016,7 hPa 0,3 l/m 0,0 km/h (0 Bft) N 0,00 h 0,000 mm 0,0 UV-I 0 W/m -2,7 C -0,2 C 0,0 km/h (0 Bft) 0,00 %
04.01.2015 02:00 0,2 C 83 % 1019,1 hPa 0,0 l/m 1,4 km/h (1 Bft) W-SW 0,00 h 0,000 mm 0,0 UV-I 0 W/m -2,5 C 0,2 C 3,0 km/h (1 Bft) 0,00 %
04.01.2015 03:00 0,6 C 80 % 1020,4 hPa 0,3 l/m 3,3 km/h (1 Bft) W-SW 0,00 h 0,000 mm 0,0 UV-I 0 W/m -2,4 C 0,5 C 5,9 km/h (2 Bft) 0,00 %
04.01.2015 04:00 0,8 C 80 % 1021,7 hPa 0,6 l/m 2,2 km/h (1 Bft) W-SW 0,00 h 0,000 mm 0,0 UV-I 0 W/m -2,3 C 0,7 C 6,0 km/h (2 Bft) 0,00 %
04.01.2015 05:00 0,6 C 80 % 1022,8 hPa 0,9 l/m 2,7 km/h (1 Bft) W-SW 0,00 h 0,000 mm 0,0 UV-I 0 W/m -2,4 C 0,6 C 5,9 km/h (2 Bft) 0,00 %
04.01.2015 06:00 0,5 C 80 % 1023,7 hPa 0,6 l/m 3,2 km/h (1 Bft) W-SW 0,00 h 0,000 mm 0,0 UV-I 0 W/m -2,5 C 0,5 C 5,9 km/h (2 Bft) 0,00 %
04.01.2015 07:00 0,5 C 80 % 1024,4 hPa 0,6 l/m 2,7 km/h (1 Bft) W-SW 0,00 h 0,000 mm 0,0 UV-I 0 W/m -2,6 C 0,5 C 5,0 km/h (1 Bft) 0,00 %
04.01.2015 08:00 0,4 C 78 % 1025,3 hPa 0,0 l/m 4,9 km/h (1 Bft) W-SW 0,00 h 0,000 mm 0,0 UV-I 27 W/m -3,0 C -0,5 C 8,9 km/h (2 Bft) 0,00 %
04.01.2015 09:00 0,7 C 74 % 1026,2 hPa 0,6 l/m 3,1 km/h (1 Bft) W-SW 0,00 h 0,000 mm 1,0 UV-I 70 W/m -3,3 C 0,7 C 5,9 km/h (2 Bft) 0,00 %
04.01.2015 10:00 0,9 C 72 % 1027,4 hPa 0,6 l/m 4,3 km/h (1 Bft) W-SW 0,00 h 0,000 mm 1,0 UV-I 53 W/m -3,5 C 0,7 C 7,9 km/h (2 Bft) 0,00 %
04.01.2015 11:00 1,1 C 72 % 1027,5 hPa 0,9 l/m 6,8 km/h (2 Bft) SW 0,00 h 0,000 mm 1,0 UV-I 100 W/m -3,4 C -0,8 C 11,0 km/h (2 Bft) 0,00 %
04.01.2015 12:00 1,4 C 70 % 1027,4 hPa 0,9 l/m 4,4 km/h (1 Bft) W-SW 0,00 h 0,000 mm 1,0 UV-I 90 W/m -3,5 C 0,2 C 7,9 km/h (2 Bft) 0,00 %
04.01.2015 13:00 1,4 C 69 % 1027,3 hPa 0,6 l/m 7,0 km/h (2 Bft) W-SW 0,00 h 0,000 mm 1,0 UV-I 79 W/m -3,7 C -0,1 C 9,9 km/h (2 Bft) 0,00 %
04.01.2015 14:00 1,1 C 70 % 1027,7 hPa 0,6 l/m 3,2 km/h (1 Bft) W-SW 0,00 h 0,000 mm 1,0 UV-I 33 W/m -3,7 C 1,1 C 7,9 km/h (2 Bft) 0,00 %
04.01.2015 15:00 0,8 C 71 % 1028,4 hPa 0,0 l/m 6,7 km/h (2 Bft) W-SW 0,00 h 0,000 mm 0,0 UV-I 13 W/m -3,8 C -1,0 C 12,0 km/h (2 Bft) 0,00 %
04.01.2015 16:00 0,7 C 72 % 1028,8 hPa 0,0 l/m 9,0 km/h (2 Bft) W-SW 0,00 h 0,000 mm 0,0 UV-I 0 W/m -3,9 C -1,7 C 13,9 km/h (3 Bft) 0,00 %
04.01.2015 17:00 0,9 C 70 % 1028,7 hPa 0,0 l/m 6,9 km/h (2 Bft) S 0,00 h 0,000 mm 0,0 UV-I 0 W/m -4,0 C -0,2 C 12,9 km/h (3 Bft) 0,00 %
04.01.2015 18:00 1,0 C 70 % 1029,0 hPa 0,0 l/m 6,9 km/h (2 Bft) W-SW 0,00 h 0,000 mm 0,0 UV-I 0 W/m -3,8 C -0,8 C 11,9 km/h (2 Bft) 0,00 %
04.01.2015 19:00 1,0 C 70 % 1029,3 hPa 0,0 l/m 9,3 km/h (2 Bft) W-SW 0,00 h 0,000 mm 0,0 UV-I 0 W/m -3,9 C -1,8 C 14,9 km/h (3 Bft) 0,00 %
04.01.2015 20:00 1,0 C 70 % 1029,6 hPa 0,0 l/m 6,6 km/h (2 Bft) W-SW 0,00 h 0,000 mm 0,0 UV-I 0 W/m -3,8 C 0,2 C 10,9 km/h (2 Bft) 0,00 %
04.01.2015 21:00 1,0 C 69 % 1029,9 hPa 0,0 l/m 11,6 km/h (2 Bft) W-SW 0,00 h 0,000 mm 0,0 UV-I 0 W/m -4,0 C -3,2 C 18,9 km/h (3 Bft) 0,00 %
04.01.2015 22:00 0,8 C 71 % 1030,5 hPa 0,0 l/m 7,6 km/h (2 Bft) W-SW 0,00 h 0,000 mm 0,0 UV-I 0 W/m -3,8 C -1,3 C 13,0 km/h (3 Bft) 0,00 %
04.01.2015 23:00 0,5 C 74 % 1031,4 hPa 0,0 l/m 9,1 km/h (2 Bft) W-NW 0,00 h 0,000 mm 0,0 UV-I 0 W/m -3,6 C -2,6 C 12,9 km/h (3 Bft) 0,00 %
Min-Datum _ 29.12.14 30.12.14 03.01.15 - 29.12.14 - - - - - 29.12.14 29.12.14 29.12.14 29.12.14
_ Min-Zeit 04:00 14:00 22:30 - 00:00 - - - - - 04:00 04:00 00:00 00:00
Minimum _ -13,2 C 58 % 1012,6 hPa - 0,0 km/h (0 Bft) - - - - - -18,4 C -13,2 C 0,0 km/h (0 Bft) 0,00 %
Max-Datum _ 03.01.15 02.01.15 01.01.15 03.01.15 03.01.15 - 01.01.15 29.12.14 02.01.15 02.01.15 02.01.15 03.01.15 03.01.15 29.12.14
_ Max-Zeit 14:15 19:30 10:00 22:00 03:00 - 12:00 00:00 10:30 13:00 20:00 14:15 03:00 00:00
Maximum _ 4,6 C 86 % 1038,0 hPa 3,9 l/m 25,6 km/h
W-SW (4 Bft)
- 1,00 h 0,000 mm 2,0 UV-I 240 W/m 0,7 C 4,6 C 36,0 km/h
W-SW (5 Bft)
0,00 %
Durchschnitt _ -2,6 C 73 % 1031,4 hPa #17,4 l/m 1,1 km/h (1 Bft) W-SW #5:45 h #0,000 mm 1,1 UV-I 94 W/m -6,7 C -2,8 C 1,9 km/h (1 Bft) 0,00 %